Terug naar catalogus

MIDAS 3 DEB

ActiefPO
NORAD 6215·DEBRIS·🇺🇸 United States

Gelanceerd Jul 12, 1961 vanaf Vandenberg Space Force Base

Loading…

Volgende Passages (komende 24 uur)

TLE

VersSource: Space-Track

Epoch: Sep 13, 2026, 20:15 UTC

1 06215U 61018E   26256.84386591  .00000018  00000-0  58513-2 0  9998
2 06215  91.1296 207.3392 0081904 107.2380 253.7475  8.90944130387811

Volg MIDAS 3 DEB in realtime met AllMySat

Download on the App Store